[[{"header":{"parameterUnit":"m.s-1","parameterCategory":1,"la1":30.2991,"la2":30.254,"lo1":-89.0895,"lo2":-89.0444,"dy":0.0017,"dx":0.0017,"nx":28,"ny":28,"refTime":"2024-04-27T21:00:00:Z","depth":0,"parameterNumber":2,"parameterNumberName":"U-component_of_WINDS"},"data":[0,0,0,0,0,0,0,0,0,0,0,0,0,0,0,0,0,0,0,0,0,0,0,0,0,0,0,0,0,0,0,0,0,0,0,0,0,0,0,0,0,0,0,0,0,0,0,0,0,0,0,0,0,0,0,0,0,0,-9.0169,-9.017,0,-9.0313,-9.0315,-9.0316,-9.025,-9.0246,-9.0243,-9.0239,-9.038,-9.0387,-9.0394,0,0,0,0,0,0,0,0,0,0,0,0,0,-8.983,-8.9836,-9.0169,-9.0171,-9.0172,-9.0313,-9.0315,-9.0317,-9.025,-9.0246,-9.0242,-9.0238,-9.0378,-9.0386,-9.0395,0,0,0,0,0,0,0,0,0,0,0,0,0,-8.9976,-8.9838,-9.0168,-9.0156,-9.0157,-9.0312,-9.0315,-9.0317,-9.0251,-9.0246,-9.0241,-9.0236,-9.0375,-9.0385,-9.0396,-9.057,0,0,-9.0429,-9.0433,0,0,0,0,0,0,0,0,-8.9967,-8.9988,-9.0156,-9.0157,-9.0158,-9.0258,-9.0247,-9.0402,-9.0253,-9.0215,-9.0239,-9.0233,-9.0344,-9.0356,-9.0395,-9.0576,-9.0583,-9.043,-9.0436,-9.0441,-9.0444,0,0,0,0,0,0,0,-8.9957,-8.9981,-9.0225,-9.0159,-9.016,-9.0142,-9.0157,-9.0276,-9.0308,-9.0218,-9.0214,-9.0232,-9.0343,-9.0385,-9.0398,-9.0585,-9.0429,-9.0439,-9.0445,-9.0449,-9.0914,-9.092,0,0,0,0,0,0,-8.9948,-8.9973,-9.0221,-9.023,-9.0048,-9.0152,-9.0169,-9.0231,-9.0306,-9.0313,-9.0236,-9.0228,-9.0369,-9.0386,-9.0403,-9.0608,-9.044,-9.045,-9.0457,-9.0908,-9.0915,-9.0922,0,0,0,0,0,0,-8.9941,-8.9971,-9.0215,-9.0101,-9.013,-9.0164,-9.0235,-9.0237,-9.0279,-9.032,-9.0325,-9.0274,-9.0366,-9.0388,-9.0529,-9.0612,-9.0455,-9.0465,-9.0901,-9.091,-9.0918,-9.1023,0,0,0,0,0,0,-8.9932,-8.9969,-9.0037,-9.0103,-9.0137,-9.0341,-9.024,-9.0244,-9.0298,-9.0289,-9.0357,-9.0362,-9.0363,-9.0513,-9.0539,-9.0624,-9.0473,-9.0893,-9.0905,-9.0916,-9.1012,-9.1035,-9.1054,0,0,0,0,0,-8.992,-9.0059,-9.004,-9.007,-9.0222,-9.0346,-9.0365,-9.0365,-9.0306,-9.0372,-9.0399,-9.036,-9.0601,-9.0528,-9.0557,-9.0647,-9.0888,-9.0902,-9.0915,-9.1003,-9.103,-9.1053,0,0,0,0,0,0,-8.9999,-9.0067,-9.0047,-9.0213,-9.0274,-9.0334,-9.0418,-9.0394,-9.0472,-9.0459,-9.0455,-9.047,-9.0616,-9.0646,-9.0564,-9.0818,-9.0735,-9.0755,-9.0792,-9.0818,-9.0839,-9.0826,-9.0482,0,0,0,0,0,-9.0036,-9.0133,-9.0187,-9.0327,-9.036,-9.0385,-9.0438,-9.0434,-9.0496,-9.0521,-9.0558,-9.0618,-9.0707,-9.0765,-9.0849,-9.1019,-9.103,-9.1094,-9.1115,-9.1132,-9.1147,-9.1236,-9.1264,-9.0966,-9.0965,-9.0965,0,0,-9.0112,-9.0162,-9.0223,-9.0345,-9.0392,-9.0489,-9.0406,-9.0514,-9.0585,-9.0536,-9.0671,-9.0701,-9.0768,-9.0924,-9.0994,-9.0953,-9.1234,-9.1149,-9.1162,-9.1168,-9.1253,-9.1281,-9.1306,-9.0975,-9.0973,-9.0972,0,0,-9.0301,-9.035,-9.0471,-9.0521,-9.0595,-9.0611,-9.064,-9.0705,-9.0724,-9.086,-9.0825,-9.091,-9.1064,-9.1113,-9.1157,-9.1368,-9.1333,-9.1396,-9.1501,-9.1588,-9.1612,-9.1632,-9.1703,-9.1729,-9.1412,-9.1412,-9.1412,0,-9.0385,-9.0533,-9.0536,-9.0646,-9.07,-9.0664,-9.0785,-9.0833,-9.0929,-9.0966,-9.092,-9.1113,-9.1156,-9.132,-9.1372,-9.1411,-9.1442,-9.1385,-9.1609,-9.1629,-9.1649,-9.1716,-9.1743,-9.1419,-9.1418,-9.1418,-9.1417,0,-9.0632,-9.0735,-9.0824,-9.0921,-9.0985,-9.11,-9.1118,-9.1183,-9.1174,-9.1194,-9.1332,-9.1384,-9.1477,-9.1517,-9.1508,-9.1681,-9.1653,-9.1609,-9.1524,-9.1684,-9.1747,-9.1773,-9.1429,-9.1426,-9.1424,-9.1422,0,0,-9.0868,-9.0968,-9.1,-9.1042,-9.1123,-9.1201,-9.1315,-9.1409,-9.1462,-9.1532,-9.1624,-9.1757,-9.1716,-9.1768,-9.1765,-9.1842,-9.2001,-9.1788,-9.1789,-9.1821,-9.219,-9.2219,-9.2249,-9.1982,-9.1987,-9.1991,-9.2183,0,-9.1059,-9.1259,-9.1266,-9.1448,-9.1542,-9.1511,-9.161,-9.1668,-9.1691,-9.1773,-9.1798,-9.189,-9.1832,-9.1863,-9.1938,-9.1965,-9.2074,-9.1952,-9.2063,-9.2067,-9.2042,-9.2283,-9.2313,-9.2492,-9.2208,-9.2212,-9.2215,0,-9.1306,-9.1385,-9.1577,-9.1644,-9.1683,-9.1772,-9.1858,-9.1938,-9.2003,-9.2015,-9.2074,-9.206,-9.2173,-9.209,-9.2245,-9.2162,-9.2209,-9.223,-9.2237,-9.2242,-9.2147,-9.229,-9.2549,-9.2574,-9.2255,-9.2252,-9.2249,0,-9.1454,-9.1609,-9.1743,-9.1781,-9.1863,-9.1926,-9.1963,-9.2024,-9.2079,-9.2155,-9.219,-9.2278,-9.2324,-9.2392,-9.2401,-9.234,-9.2556,-9.2473,-9.2564,-9.2564,-9.2606,-9.2602,-9.2872,-9.2646,-9.2645,-9.2645,-9.2644,0,-9.1663,-9.178,-9.181,-9.1892,-9.2022,-9.203,-9.2158,-9.219,-9.2245,-9.233,-9.2311,-9.2391,-9.2401,-9.2484,-9.2493,-9.2618,-9.264,-9.265,-9.265,-9.2649,-9.2647,-9.2675,-9.266,-9.2652,-9.265,-9.2649,-9.2648,0,-9.1847,-9.1873,-9.2016,-9.2084,-9.2103,-9.2196,-9.2252,-9.233,-9.2353,-9.2461,-9.2487,-9.2522,-9.2619,-9.2637,-9.2751,-9.2756,-9.2904,-9.2894,-9.2882,-9.2879,-9.2967,-9.2956,-9.3259,-9.3297,-9.3052,-9.3054,-9.3056,0,-9.1975,-9.2065,-9.2143,-9.2201,-9.2241,-9.2334,-9.2391,-9.2403,-9.2463,-9.2546,-9.2613,-9.2708,-9.2784,-9.294,-9.2974,-9.3061,-9.3049,-9.315,-9.3061,-9.3057,-9.3045,-9.3037,-9.3044,-9.3164,-9.3167,-9.3169,-9.3171,0,-9.2199,-9.2208,-9.2293,-9.2383,-9.2453,-9.2524,-9.2591,-9.2639,-9.2659,-9.2728,-9.2828,-9.2887,-9.3005,-9.3098,-9.3186,-9.3221,-9.3198,-9.32,-9.3224,-9.3221,-9.3208,-9.3212,-9.2922,-9.3191,-9.3189,-9.3187,-9.3186,-9.3185,-9.2356,-9.2434,-9.2501,-9.2596,-9.2649,-9.2712,-9.2788,-9.2822,-9.2906,-9.3003,-9.3006,-9.3114,-9.3178,-9.3293,-9.3334,-9.3418,-9.3385,-9.3422,-9.3431,-9.3438,-9.3444,-9.3201,-9.3434,-9.3434,-9.3433,-9.3433,-9.3432,0,-9.2574,-9.2617,-9.2705,-9.2801,-9.2875,-9.2853,-9.2927,-9.2989,-9.3086,-9.3148,-9.3225,-9.3339,-9.343,-9.3473,-9.3563,-9.3621,-9.3613,-9.3644,-9.3636,-9.3644,-9.347,-9.3438,-9.3649,-9.3649,-9.3649,-9.3649,-9.3649,-9.3649,-9.2696,-9.2826,-9.2843,-9.2998,-9.304,-9.3147,-9.3191,-9.3249,-9.3299,-9.3428,-9.3504,-9.3533,-9.3587,-9.3681,-9.3763,-9.3773,-9.3805,-9.384,-9.3844,-9.3679,-9.3657,-9.3636,-9.3605,-9.3848,-9.3848,-9.4011,-9.4012,-9.4014]},{"header":{"parameterUnit":"m.s-1","parameterCategory":1,"la1":30.2991,"la2":30.254,"lo1":-89.0895,"lo2":-89.0444,"dy":0.0017,"dx":0.0017,"nx":28,"ny":28,"refTime":"2024-04-27T21:00:00:Z","depth":0,"parameterNumber":3,"parameterNumberName":"V-component_of_WINDS"},"data":[0,0,0,0,0,0,0,0,0,0,0,0,0,0,0,0,0,0,0,0,0,0,0,0,0,0,0,0,0,0,0,0,0,0,0,0,0,0,0,0,0,0,0,0,0,0,0,0,0,0,0,0,0,0,0,0,0,0,4.1246,4.1247,0,4.1306,4.1306,4.1307,4.1296,4.1295,4.1294,4.1293,4.1349,4.1351,4.1354,0,0,0,0,0,0,0,0,0,0,0,0,0,4.1121,4.1123,4.1246,4.1247,4.1248,4.1305,4.1306,4.1307,4.1296,4.1295,4.1294,4.1293,4.1348,4.1351,4.1354,0,0,0,0,0,0,0,0,0,0,0,0,0,4.1177,4.1124,4.1246,4.125,4.1251,4.1305,4.1306,4.1307,4.1297,4.1295,4.1294,4.1292,4.1347,4.1351,4.1354,4.1408,0,0,4.1366,4.1367,0,0,0,0,0,0,0,0,4.1174,4.1182,4.1248,4.1249,4.1251,4.1292,4.1283,4.1341,4.1297,4.1279,4.1293,4.1291,4.1331,4.1336,4.135,4.1411,4.1413,4.1366,4.1368,4.137,4.1371,0,0,0,0,0,0,0,4.117,4.1179,4.127,4.1249,4.1251,4.1247,4.1253,4.1294,4.1313,4.128,4.128,4.1287,4.1331,4.1347,4.1351,4.1414,4.1366,4.1369,4.1371,4.1373,4.1523,4.1524,0,0,0,0,0,0,4.1166,4.1176,4.1268,4.1271,4.1208,4.1251,4.1258,4.128,4.1312,4.1316,4.1288,4.1287,4.1341,4.1347,4.1353,4.1419,4.137,4.1373,4.1375,4.1521,4.1523,4.1525,0,0,0,0,0,0,4.1163,4.1174,4.1265,4.1224,4.1235,4.1255,4.128,4.1282,4.1298,4.1319,4.1321,4.1301,4.134,4.1348,4.1395,4.1421,4.1375,4.1378,4.1519,4.1522,4.1524,4.155,0,0,0,0,0,0,4.116,4.1173,4.1194,4.1224,4.1237,4.1307,4.1281,4.1284,4.1305,4.1303,4.1331,4.1334,4.134,4.139,4.1399,4.1425,4.1381,4.1517,4.152,4.1523,4.1547,4.1553,4.1558,0,0,0,0,0,4.1155,4.1198,4.1195,4.1206,4.1264,4.1308,4.1316,4.1323,4.1307,4.1328,4.1341,4.1333,4.1417,4.1395,4.1405,4.1432,4.1515,4.1519,4.1523,4.1544,4.1552,4.1558,0,0,0,0,0,0,4.1167,4.1202,4.1199,4.1253,4.1278,4.1307,4.1333,4.133,4.1359,4.1356,4.1362,4.1368,4.1416,4.1429,4.1404,4.1487,4.1464,4.147,4.1476,4.1484,4.1489,4.1484,4.1384,0,0,0,0,0,4.1177,4.1212,4.1239,4.1284,4.1297,4.1313,4.1332,4.1336,4.1361,4.1371,4.1388,4.1413,4.1444,4.1465,4.1495,4.1549,4.1555,4.1573,4.1579,4.1584,4.1589,4.1619,4.1627,4.1538,4.1538,4.1538,0,0,4.1196,4.1219,4.124,4.1287,4.1307,4.1341,4.1322,4.1359,4.1384,4.1376,4.1422,4.1436,4.1463,4.1515,4.1538,4.1527,4.1615,4.1589,4.1593,4.1595,4.1624,4.1633,4.164,4.1541,4.154,4.154,0,0,4.1248,4.1269,4.1309,4.133,4.1362,4.1373,4.1383,4.1413,4.1422,4.1469,4.1464,4.1494,4.1549,4.1569,4.1586,4.165,4.1643,4.1659,4.1689,4.1719,4.1726,4.1732,4.1754,4.1762,4.1664,4.1664,4.1664,0,4.1266,4.132,4.1329,4.1368,4.1389,4.1387,4.1427,4.1447,4.1486,4.15,4.1488,4.1558,4.1576,4.1632,4.1648,4.1662,4.1673,4.1655,4.1724,4.173,4.1736,4.1758,4.1766,4.1666,4.1666,4.1666,4.1666,0,4.1342,4.1379,4.1407,4.1448,4.1472,4.1511,4.1526,4.155,4.1552,4.1564,4.1612,4.1635,4.167,4.1684,4.1686,4.1741,4.1734,4.1723,4.1699,4.1746,4.1767,4.1775,4.1669,4.1668,4.1667,4.1667,0,0,4.14,4.1448,4.1458,4.1477,4.1513,4.1542,4.1581,4.1618,4.1638,4.1666,4.1699,4.1747,4.1738,4.1757,4.1761,4.1788,4.1837,4.1774,4.1775,4.1784,4.19,4.1907,4.1916,4.1834,4.1835,4.1837,4.1897,0,4.1455,4.1526,4.1538,4.16,4.1635,4.1634,4.1669,4.1694,4.1708,4.1738,4.1752,4.1786,4.1772,4.1784,4.181,4.1825,4.186,4.1821,4.1863,4.1865,4.1855,4.1927,4.1934,4.199,4.1905,4.1906,4.1907,0,4.1528,4.156,4.1627,4.166,4.1675,4.1706,4.1742,4.1772,4.1801,4.1809,4.1833,4.1834,4.1875,4.1852,4.1907,4.1881,4.1899,4.1909,4.1912,4.1915,4.1888,4.193,4.2008,4.2016,4.192,4.1919,4.1918,0,4.1564,4.1624,4.1672,4.1688,4.1728,4.175,4.1768,4.1796,4.1818,4.1849,4.1863,4.1898,4.1916,4.1943,4.1954,4.1936,4.2009,4.1987,4.2016,4.2016,4.203,4.2028,4.211,4.2044,4.2044,4.2043,4.2043,0,4.1623,4.1663,4.1689,4.1718,4.1764,4.1777,4.1821,4.1838,4.1863,4.1895,4.1897,4.1927,4.194,4.1972,4.1981,4.2026,4.2034,4.2041,4.2043,4.204,4.2039,4.2051,4.2047,4.2046,4.2045,4.2045,4.2044,0,4.1669,4.1688,4.1741,4.1776,4.1786,4.1818,4.1847,4.1875,4.189,4.193,4.194,4.1962,4.2,4.2015,4.206,4.2066,4.2118,4.2117,4.2109,4.2109,4.2137,4.2134,4.2228,4.2241,4.2167,4.2167,4.2168,0,4.1706,4.1737,4.1777,4.18,4.1819,4.1855,4.1878,4.1893,4.1917,4.1954,4.1978,4.2016,4.2047,4.2108,4.2127,4.2162,4.2161,4.2192,4.2166,4.2163,4.2161,4.2159,4.2162,4.2196,4.2197,4.2197,4.2198,0,4.1768,4.1776,4.1811,4.185,4.1878,4.1909,4.1938,4.1957,4.1975,4.2003,4.2043,4.2067,4.2115,4.2153,4.219,4.2206,4.2205,4.2206,4.2215,4.2212,4.2205,4.2209,4.212,4.2203,4.2203,4.2202,4.2202,4.2202,4.181,4.1838,4.1871,4.191,4.1935,4.1963,4.1992,4.2012,4.2046,4.2087,4.2094,4.2136,4.2166,4.2216,4.2235,4.2268,4.226,4.2272,4.2275,4.2277,4.2279,4.2202,4.2275,4.2275,4.2274,4.2274,4.2274,0,4.1871,4.1894,4.193,4.1973,4.2004,4.2003,4.2036,4.2061,4.21,4.2129,4.216,4.2207,4.2244,4.2268,4.2305,4.2327,4.2328,4.2337,4.2334,4.2338,4.2285,4.2273,4.2336,4.2336,4.2336,4.2336,4.2336,4.2336,4.1907,4.1956,4.1969,4.203,4.2052,4.2095,4.2114,4.214,4.2164,4.2216,4.2248,4.2264,4.2291,4.2331,4.2366,4.2372,4.2385,4.2394,4.24,4.2348,4.2342,4.2336,4.2325,4.2397,4.2398,4.245,4.2451,4.2451]}]]